Lake Wylie Weather Center

Moon Phase Calendar



Lake Wylie Water Level
Online Cameras

 


      

Current Conditions in Lake Wylie
5/17/2022 12:02:01 AM

68°F
Feels Like 67
Clear
Humidity
61%
Pressure
29.91"
Wind
8 mph (NNE)
Dew Point
54°F
UV Index
0/10 (Low)
Visibility
6 mi

Hourly Forecast

Date & Time Tue, May 17
12:00 AM
Tue, May 17
1:00 AM
Tue, May 17
2:00 AM
Tue, May 17
3:00 AM
Tue, May 17
4:00 AM
Tue, May 17
5:00 AM
Tue, May 17
6:00 AM
Tue, May 17
7:00 AM
Tue, May 17
8:00 AM
Tue, May 17
9:00 AM
Tue, May 17
10:00 AM
Tue, May 17
11:00 AM
Tue, May 17
12:00 PM
Tue, May 17
1:00 PM
Tue, May 17
2:00 PM
Tue, May 17
3:00 PM
Tue, May 17
4:00 PM
Tue, May 17
5:00 PM
Tue, May 17
6:00 PM
Tue, May 17
7:00 PM
Tue, May 17
8:00 PM
Tue, May 17
9:00 PM
Tue, May 17
10:00 PM
Tue, May 17
11:00 PM
Wed, May 18
12:00 AM
Wed, May 18
1:00 AM
Wed, May 18
2:00 AM
Wed, May 18
3:00 AM
Wed, May 18
4:00 AM
Wed, May 18
5:00 AM
Wed, May 18
6:00 AM
Wed, May 18
7:00 AM
Wed, May 18
8:00 AM
Wed, May 18
9:00 AM
Wed, May 18
10:00 AM
Wed, May 18
11:00 AM
Wed, May 18
12:00 PM
Wed, May 18
1:00 PM
Wed, May 18
2:00 PM
Wed, May 18
3:00 PM
Wed, May 18
4:00 PM
Wed, May 18
5:00 PM
Wed, May 18
6:00 PM
Wed, May 18
7:00 PM
Wed, May 18
8:00 PM
Wed, May 18
9:00 PM
Wed, May 18
10:00 PM
Wed, May 18
11:00 PM
Condition
Clear

Clear

Clear

Clear

Clear

Clear

Clear

Clear

Clear

Clear

Clear

Clear

Clear

Clear

Clear

Clear

Clear

Clear

Clear

Clear

Clear

Clear

Clear

Clear

Clear

Clear

Clear

Clear

Clear

Clouds

Clouds

Clouds

Clouds

Clear

Clear

Clouds

Clouds

Clouds

Clouds

Clouds

Clouds

Clouds

Clouds

Clouds

Clouds

Clouds

Clouds

Clouds
Temperature 68°F66°F64°F62°F59°F57°F56°F57°F62°F68°F73°F76°F79°F81°F81°F82°F82°F82°F81°F78°F72°F69°F67°F65°F64°F63°F62°F61°F60°F60°F60°F60°F65°F70°F75°F78°F81°F84°F86°F87°F88°F88°F86°F82°F77°F73°F72°F71°F
Feels Like 67°F65°F63°F61°F58°F55°F55°F55°F61°F67°F72°F75°F79°F79°F80°F80°F81°F81°F80°F78°F71°F68°F66°F64°F63°F62°F61°F60°F60°F59°F59°F59°F64°F69°F74°F78°F81°F82°F84°F85°F86°F86°F85°F82°F77°F73°F72°F71°F
Cloudiness 0%1%2%0%0%0%0%0%0%0%0%0%0%0%0%0%0%0%0%0%0%0%0%0%0%0%0%1%6%27%45%55%53%10%7%16%32%29%28%45%39%59%70%66%71%45%68%72%
Visibility 6 mi6 mi6 mi6 mi6 mi6 mi6 mi6 mi6 mi6 mi6 mi6 mi6 mi6 mi6 mi6 mi6 mi6 mi6 mi6 mi6 mi6 mi6 mi6 mi6 mi6 mi6 mi6 mi6 mi6 mi6 mi6 mi6 mi6 mi6 mi6 mi6 mi6 mi6 mi6 mi6 mi6 mi6 mi6 mi6 mi6 mi6 mi6 mi
Precipitation 0%0%0%0%0%0%0%0%0%0%0%0%0%0%0%0%0%0%0%0%0%0%0%0%0%0%0%0%0%0%0%0%0%0%0%0%0%0%0%0%0%0%0%0%0%0%0%0%
Humidity 61%62%64%66%69%70%71%72%63%53%44%35%32%29%28%28%29%31%34%47%53%53%57%60%64%66%68%70%71%72%72%73%64%54%48%43%38%34%31%30%30%31%35%45%55%57%59%61%
Dew Point 54°F53°F52°F50°F49°F47°F46°F47°F49°F50°F49°F47°F47°F46°F45°F46°F47°F48°F50°F56°F53°F50°F50°F51°F51°F51°F51°F51°F51°F51°F50°F51°F52°F53°F53°F54°F53°F53°F52°F52°F52°F53°F56°F58°F59°F57°F57°F57°F
Pressure 29.91"29.91"29.91"29.94"29.97"29.97"29.97"30"30.03"30.03"30.03"30.03"30"30"29.97"29.97"29.94"29.94"29.94"29.94"29.97"29.97"30"30.03"30.03"30.03"30.03"30.03"30.03"30.03"30.06"30.06"30.09"30.09"30.09"30.06"30.03"30"29.97"29.94"29.94"29.91"29.88"29.85"29.88"29.88"29.88"29.91"
Wind Speed 6.5 mph5.6 mph4.8 mph4.8 mph4.8 mph4.7 mph4.5 mph4 mph3.4 mph3.4 mph3.8 mph3.8 mph3.1 mph4.3 mph5.8 mph6.6 mph5.7 mph4.9 mph3.2 mph1.2 mph1.9 mph2.2 mph2.9 mph3.5 mph2.5 mph3.1 mph3.7 mph3.5 mph3.9 mph4.1 mph4.2 mph4 mph3.6 mph3.9 mph3.8 mph4.5 mph6 mph7.8 mph8.7 mph9 mph10 mph10.4 mph9 mph6.9 mph5.4 mph5.6 mph4.8 mph5.9 mph
Wind
Direction
11°
N

N

N

N
13°
NNE

N

N

N

N

N
349°
N
347°
NNW
329°
NNW
298°
WNW
295°
WNW
295°
WNW
288°
WNW
284°
WNW
276°
W
215°
SW
187°
S
220°
SW
248°
WSW
274°
W
286°
WNW
321°
NW
351°
N
30°
NNE
42°
NE
37°
NE
60°
ENE
91°
E
112°
ESE
145°
SE
170°
S
188°
S
202°
SSW
208°
SSW
216°
SW
223°
SW
240°
WSW
240°
WSW
220°
SW
217°
SW
248°
WSW
206°
SSW
199°
SSW
181°
S

Daily Forecast

Date High Low Precip. Humidity
Today
May 17

Clear
82 °F
56 °F
0%
29%
Wednesday
May 18

Clouds
88 °F
60 °F
0%
34%
Thursday
May 19

Rain
97 °F
68 °F
24%
32%
Friday
May 20

Rain
95 °F
67 °F
30%
31%
Saturday
May 21

Rain
94 °F
67 °F
100%
39%
Sunday
May 22

Rain
89 °F
66 °F
98%
44%
Monday
May 23

Rain
70 °F
56 °F
96%
62%
Tuesday
May 24

Clouds
78 °F
52 °F
0%
38%
Wednesday
May 25

Clouds
72 °F
58 °F
0%
85%
Thursday
May 26

Rain
80 °F
64 °F
100%
75%
Friday
May 27

Rain
86 °F
68 °F
100%
66%
Saturday
May 28

Rain
77 °F
63 °F
80%
74%
Sunday
May 29

Rain
70 °F
64 °F
100%
98%
Monday
May 30

Rain
80 °F
70 °F
100%
83%
Tuesday
May 31

Rain
76 °F
70 °F
98%
92%
Wednesday
Jun 1

Clouds
86 °F
68 °F
23%
56%

Temperature 8-14 Day Outlook



Precipitation 8-14 Day Outlook




Quick Links
Lake Wylie News
Lake Wylie Photos
Lake Wylie Videos




About Us
Contact Us
Site Map
Search Site
Advertise With Us
   
Wylie.USLakes.info
THE LAKE WYLIE WEBSITE

Copyright 2022, Lakes Online
Privacy    |    Legal